Starlink 31899

operational
NORAD ID: 59850 Int'l Des: 2024-097 Owner: SPXS Country: US Constellation: starlink
LEOCIRCULAR

Starlink 31899について

説明を読み込み中...

リアルタイム位置

3D地球を読み込み中...

次回通過

高度履歴

Altitude vs Time

uPlot chart will show altitude changes over time

軌道要素

1 59850U 24097R 25259.21282460 -.00001050 00000-0 -28647-4 0 9996
2 59850 43.0008 179.6420 0001075 270.3858 89.6870 15.27571902 75233
Epoch: Sep 16, 2025 • Age: 11 hours

現在のステータス

高度 486.9 km
速度 7.63 km/s
衛星直下点 43.05°N, 19.15°E
打ち上げ日 May 23, 2024
運用期間 1.3 years
タイプ internet

技術仕様

分類 Payload
質量 730.00 kg
乾燥質量 700.00 kg
総質量 730.00 kg
長さ 0.30 m
直径 4.10 m
スパン 29.00 m
形状 Box + pan
製造者 SPXS
バスタイプ Starlink V2M
フェーズステータス In Orbit
所有者/国 SPXS/US

大規模コンステレーション

Loading constellations...